Regional Weather Roundup
Issued by NWS Little Rock, AR

Home | Current Version | Previous Version | Text Only | Print | Product List | Glossary On
Versions: 1 2 3 4 5 6 7 8 9 10 11 12 13 14 15 16 17 18 19 20 21 22 23 24 25 26 27 28 29 30 31 32 33
000
ASUS44 KLZK 301505
RWRLZK

WEATHER ROUNDUP FOR ARKANSAS
NATIONAL WEATHER SERVICE LITTLE ROCK AR
1000 AM CDT THU MAR 30 2017

NOTE: "FAIR" INDICATES FEW OR NO CLOUDS BELOW 12,000 FEET WITH NO
SIGNIFICANT WEATHER AND/OR OBSTRUCTIONS TO VISIBILITY.

ARZ001-003-010-029-301600-
NORTHWEST ARKANSAS

CITY           SKY/WX    TMP DP  RH WIND       PRES   REMARKS
FAYETTEVILLE   CLOUDY    47  41  80 SW12      29.67S
FORT SMITH     CLOUDY    52  40  63 W15       29.71S
HARRISON       CLOUDY    48  40  73 SW9G17    29.65F
BENTONVILLE    CLOUDY    46  41  81 SW15      29.66S
ROGERS         CLOUDY    47  41  80 W13       29.65F
SILOAM SPGS    CLOUDY    46  39  76 SW16      29.66S
HIGHFILL       CLOUDY    46  42  86 SW14G24   29.65S FOG
SPRINGDALE     CLOUDY    46  41  81 SW12G23   29.67F
$$

ARZ004-005-016-301600-
NORTH CENTRAL ARKANSAS

CITY           SKY/WX    TMP DP  RH WIND       PRES   REMARKS
BATESVILLE     CLOUDY    55  48  76 SW13      29.67R
FLIPPIN        MOSUNNY   55  39  54 SW8G18    29.62S
MTN HOME       MOSUNNY   55  47  74 N5        29.63R
$$

ARZ040-041-301600-
WEST CENTRAL ARKANSAS

CITY           SKY/WX    TMP DP  RH WIND       PRES   REMARKS
MENA           CLOUDY    52  46  82 SW12G17   29.74R
MOUNT IDA      CLOUDY    53  41  63 VRB6      29.71S
$$

ARZ009-017-025-026-028-301600-
NORTHEAST ARKANSAS

CITY           SKY/WX    TMP DP  RH WIND       PRES   REMARKS
JONESBORO      CLOUDY    67  60  78 S17G28    29.64S
NEWPORT        CLOUDY    67  59  75 SW22      29.64S
WALNUT RIDGE   CLOUDY    66  61  82 S23G29    29.61F
BLYTHEVILLE    CLOUDY    68  61  78 SW28G39   29.68S
NW BLYTHEVILLE PTSUNNY   68  61  77 SW21G35   29.66F
$$

ARZ022-023-033-042-044-301600-
CENTRAL ARKANSAS

CITY           SKY/WX    TMP DP  RH WIND       PRES   REMARKS
LITTLE ROCK    MOSUNNY   60  50  69 SW16      29.72R
N LITTLE ROCK    N/A     58  53  85 W3        29.71R
JACKSONVILLE   CLOUDY    58  52  81 W9        29.70R
CONWAY           N/A     57  45  62 W20       29.71R
SEARCY         CLOUDY    58  51  78 W10G17    29.71R
HOT SPRINGS    PTSUNNY   54  44  69 SW8       29.75R
RUSSELLVILLE   CLOUDY    52  42  69 W9        29.71
$$

ARZ036-301600-
EAST ARKANSAS

CITY           SKY/WX    TMP DP  RH WIND       PRES   REMARKS
WEST MEMPHIS   PTSUNNY   68  62  81 S18G31    29.68F
$$

ARZ050-053-066-070-073-301600-
SOUTHWEST ARKANSAS

CITY           SKY/WX    TMP DP  RH WIND       PRES   REMARKS
ARKADELPHIA    PTSUNNY   55  45  68 SW10      29.79R
CAMDEN         PTSUNNY   61  43  51 SW14G22   29.81S
TEXARKANA      SUNNY     56  44  64 W14G22    29.80R
EL DORADO      PTSUNNY   58  47  66 SW10      29.84R
DE QUEEN       PTSUNNY   54  45  71 W16G24    29.76S
$$

ARZ056-057-069-301600-
SOUTHEAST ARKANSAS

CITY           SKY/WX    TMP DP  RH WIND       PRES   REMARKS
PINE BLUFF     MOSUNNY   61  47  59 SW12G23   29.77R
STUTTGART      CLOUDY    64  50  59 SW21G30   29.73R
MONTICELLO     MOSUNNY   62  53  72 SW14G24   29.78S

$$






USA.gov is the U.S. government's official web portal to all federal, state and local government web resources and services.